| time (UTC) | temp F | wind direction | speed MPH | gust MPH | rain 1hr in | rain 24hr in | rain mn in | humidity % | barometer mb |
| 20260506090703 | 67 | 242 | 1.0 | 2.0 | 0.00 | 0.00 | 0.00 | 79 | 1011.7 |
| 20260506090009 | 66 | 282 | 0.0 | 2.0 | 0.00 | 0.00 | 0.00 | 79 | 1011.2 |
| 20260506085803 | 66 | 282 | 0.0 | 2.0 | 0.00 | 0.00 | 0.00 | 79 | 1011.8 |
| 20260506084903 | 66 | 282 | 0.0 | 1.0 | 0.00 | 0.00 | 0.00 | 80 | 1011.9 |
| 20260506084515 | 66 | 282 | 0.0 | 1.0 | 0.00 | 0.00 | 0.00 | 80 | 1011.3 |
| 20260506084003 | 66 | 282 | 0.0 | 2.0 | 0.00 | 0.00 | 0.00 | 79 | 1011.8 |
| 20260506083103 | 66 | 282 | 0.0 | 1.0 | 0.00 | 0.00 | 0.00 | 80 | 1011.8 |
| 20260506083006 | 66 | 282 | 0.0 | 1.0 | 0.00 | 0.00 | 0.00 | 80 | 1011.3 |
| 20260506082203 | 66 | 0 | 0.0 | 0.0 | 0.00 | 0.00 | 0.00 | 79 | 1011.7 |
| 20260506081514 | 66 | 282 | 0.0 | 2.0 | 0.00 | 0.00 | 0.00 | 79 | 1011.3 |
| 20260506081303 | 66 | 282 | 0.0 | 2.0 | 0.00 | 0.00 | 0.00 | 79 | 1012.0 |
| 20260506080403 | 66 | 0 | 0.0 | 1.0 | 0.00 | 0.00 | 0.00 | 79 | 1011.9 |
| 20260506073011 | 65 | 282 | 0.0 | 0.0 | 0.00 | 0.00 | 0.00 | 76 | 1011.4 |
| 20260506072803 | 66 | 0 | 0.0 | 0.0 | 0.00 | 0.00 | 0.00 | 76 | 1011.8 |
| 20260506071903 | 66 | 282 | 0.0 | 1.0 | 0.00 | 0.00 | 0.00 | 76 | 1012.0 |
| 20260506071517 | 66 | 282 | 0.0 | 1.0 | 0.00 | 0.00 | 0.00 | 76 | 1011.5 |
| 20260506071024 | 66 | 280 | 0.0 | 1.0 | 0.00 | 0.00 | 0.00 | 76 | 1012.0 |
| 20260506070104 | 66 | 281 | 0.0 | 2.0 | 0.00 | 0.00 | 0.00 | 76 | 1011.4 |
| 20260506062503 | 66 | 275 | 0.0 | 1.0 | 0.00 | 0.00 | 0.00 | 72 | 1012.4 |
| 20260506061603 | 66 | 277 | 0.0 | 1.0 | 0.00 | 0.00 | 0.00 | 72 | 1012.6 |
| 20260506061510 | 66 | 277 | 0.0 | 0.0 | 0.00 | 0.00 | 0.00 | 71 | 1012.2 |
| 20260506060703 | 66 | 275 | 0.0 | 1.0 | 0.00 | 0.00 | 0.00 | 70 | 1012.7 |
| 20260506051324 | 68 | 275 | 0.0 | 1.0 | 0.00 | 0.00 | 0.00 | 68 | 1013.0 |
| 20260506050403 | 68 | 275 | 0.0 | 2.0 | 0.00 | 0.00 | 0.00 | 68 | 1013.1 |
| 20260506044603 | 68 | 275 | 0.0 | 1.0 | 0.00 | 0.00 | 0.00 | 68 | 1013.3 |
| 20260506044516 | 68 | 275 | 0.0 | 0.0 | 0.00 | 0.00 | 0.00 | 68 | 1012.9 |
| 20260506043703 | 69 | 275 | 1.0 | 2.0 | 0.00 | 0.00 | 0.00 | 68 | 1013.2 |
| 20260506043111 | 68 | 275 | 0.0 | 2.0 | 0.00 | 0.00 | 0.00 | 67 | 1012.6 |
| 20260506042824 | 69 | 275 | 1.0 | 2.0 | 0.00 | 0.00 | 0.00 | 67 | 1012.9 |
| 20260506041903 | 69 | 275 | 0.0 | 2.0 | 0.00 | 0.00 | 0.00 | 69 | 1012.8 |
| 20260506041507 | 68 | 275 | 0.0 | 1.0 | 0.00 | 0.00 | 0.00 | 67 | 1012.2 |
| 20260506041003 | 69 | 275 | 1.0 | 2.0 | 0.00 | 0.00 | 0.00 | 67 | 1012.8 |
| 20260506040011 | 69 | 275 | 1.0 | 2.0 | 0.00 | 0.00 | 0.00 | 67 | 1012.6 |
| 20260506035203 | 69 | 275 | 2.0 | 3.0 | 0.00 | 0.00 | 0.00 | 66 | 1013.0 |
| 20260506034515 | 69 | 275 | 1.0 | 3.0 | 0.00 | 0.00 | 0.00 | 67 | 1012.7 |
| 20260506034304 | 69 | 259 | 1.0 | 3.0 | 0.00 | 0.00 | 0.00 | 67 | 1013.0 |
| 20260506033403 | 69 | 241 | 1.0 | 3.0 | 0.00 | 0.00 | 0.00 | 66 | 1012.8 |
| 20260506033005 | 69 | 236 | 0.0 | 3.0 | 0.00 | 0.00 | 0.00 | 67 | 1012.3 |
| 20260506032504 | 69 | 236 | 1.0 | 2.0 | 0.00 | 0.00 | 0.00 | 67 | 1012.4 |
| 20260506031604 | 69 | 236 | 0.0 | 3.0 | 0.00 | 0.00 | 0.00 | 67 | 1012.4 |
| 20260506031520 | 69 | 236 | 0.0 | 3.0 | 0.00 | 0.00 | 0.00 | 67 | 1012.0 |
| 20260506030703 | 69 | 233 | 0.0 | 2.0 | 0.00 | 0.00 | 0.00 | 67 | 1012.8 |
| 20260506030016 | 68 | 231 | 0.0 | 1.0 | 0.00 | 0.00 | 0.00 | 67 | 1012.7 |
| 20260506025804 | 69 | 231 | 0.0 | 2.0 | 0.00 | 0.00 | 0.00 | 68 | 1013.3 |
| 20260506024903 | 69 | 231 | 0.0 | 2.0 | 0.00 | 0.00 | 0.00 | 68 | 1013.3 |
| 20260506024507 | 69 | 231 | 0.0 | 2.0 | 0.00 | 0.00 | 0.00 | 67 | 1012.9 |
| 20260506024004 | 69 | 231 | 1.0 | 2.0 | 0.00 | 0.00 | 0.00 | 68 | 1013.3 |
| 20260506023103 | 69 | 230 | 0.0 | 1.0 | 0.00 | 0.00 | 0.00 | 66 | 1013.1 |
| 20260506023010 | 69 | 231 | 0.0 | 1.0 | 0.00 | 0.00 | 0.00 | 66 | 1012.7 |
| 20260506022204 | 70 | 230 | 0.0 | 2.0 | 0.00 | 0.00 | 0.00 | 68 | 1013.2 |
| 20260506021518 | 69 | 230 | 0.0 | 1.0 | 0.00 | 0.00 | 0.00 | 66 | 1012.6 |
| 20260506021304 | 69 | 229 | 0.0 | 2.0 | 0.00 | 0.00 | 0.00 | 66 | 1013.1 |
| 20260506020404 | 70 | 230 | 0.0 | 2.0 | 0.00 | 0.00 | 0.00 | 66 | 1012.9 |
| 20260506020005 | 69 | 230 | 0.0 | 0.0 | 0.00 | 0.00 | 0.00 | 66 | 1012.4 |
| 20260506015504 | 70 | 235 | 0.0 | 1.0 | 0.00 | 0.00 | 0.00 | 66 | 1012.7 |
| 20260506014604 | 70 | 233 | 0.0 | 2.0 | 0.00 | 0.00 | 0.00 | 65 | 1012.7 |
| 20260506014512 | 69 | 235 | 0.0 | 1.0 | 0.00 | 0.00 | 0.00 | 65 | 1012.3 |
| 20260506013725 | 70 | 234 | 0.0 | 2.0 | 0.00 | 0.00 | 0.00 | 65 | 1012.8 |
| 20260506013020 | 70 | 234 | 0.0 | 2.0 | 0.00 | 0.00 | 0.00 | 66 | 1012.2 |
| 20260506012804 | 70 | 234 | 0.0 | 2.0 | 0.00 | 0.00 | 0.00 | 66 | 1012.7 |
| 20260506011925 | 70 | 0 | 0.0 | 0.0 | 0.00 | 0.00 | 0.00 | 64 | 1012.7 |
| 20260506011511 | 70 | 236 | 0.0 | 1.0 | 0.00 | 0.00 | 0.00 | 65 | 1012.4 |
| 20260506011025 | 70 | 227 | 0.0 | 1.0 | 0.00 | 0.00 | 0.00 | 65 | 1012.7 |
| 20260506010104 | 70 | 233 | 0.0 | 1.0 | 0.00 | 0.00 | 0.00 | 63 | 1012.7 |
| 20260506010033 | 70 | 232 | 0.0 | 1.0 | 0.00 | 0.00 | 0.00 | 63 | 1012.3 |
| 20260506005204 | 70 | 231 | 0.0 | 1.0 | 0.00 | 0.00 | 0.00 | 62 | 1012.5 |
| 20260506004516 | 70 | 231 | 0.0 | 2.0 | 0.00 | 0.00 | 0.00 | 64 | 1012.1 |
| 20260506004304 | 71 | 230 | 0.0 | 2.0 | 0.00 | 0.00 | 0.00 | 64 | 1012.5 |
| 20260506003404 | 71 | 229 | 0.0 | 1.0 | 0.00 | 0.00 | 0.00 | 62 | 1012.5 |
| 20260506003005 | 71 | 229 | 0.0 | 1.0 | 0.00 | 0.00 | 0.00 | 63 | 1012.2 |
| 20260506002504 | 71 | 231 | 0.0 | 2.0 | 0.00 | 0.00 | 0.00 | 61 | 1012.4 |
| 20260506001604 | 72 | 230 | 1.0 | 2.0 | 0.00 | 0.00 | 0.00 | 61 | 1012.6 |
| 20260506001510 | 71 | 230 | 0.0 | 2.0 | 0.00 | 0.00 | 0.00 | 62 | 1012.2 |
| 20260506000704 | 72 | 230 | 0.0 | 2.0 | 0.00 | 0.00 | 0.00 | 58 | 1012.4 |
| 20260506000015 | 72 | 230 | 0.0 | 2.0 | 0.00 | 0.00 | 0.00 | 61 | 1012.2 |
| 20260505235804 | 73 | 230 | 0.0 | 1.0 | 0.00 | 0.00 | 0.00 | 60 | 1012.6 |
| 20260505234925 | 73 | 231 | 1.0 | 2.0 | 0.00 | 0.00 | 0.00 | 58 | 1012.4 |
| 20260505234504 | 73 | 230 | 0.0 | 2.0 | 0.00 | 0.00 | 0.00 | 58 | 1012.1 |
| 20260505234004 | 74 | 231 | 1.0 | 2.0 | 0.00 | 0.00 | 0.00 | 58 | 1012.7 |
| 20260505233104 | 74 | 231 | 0.0 | 1.0 | 0.00 | 0.00 | 0.00 | 56 | 1012.6 |
| 20260505233008 | 73 | 231 | 0.0 | 1.0 | 0.00 | 0.00 | 0.00 | 56 | 1012.2 |
| 20260505232225 | 74 | 230 | 0.0 | 3.0 | 0.00 | 0.00 | 0.00 | 55 | 1013.0 |
| 20260505231513 | 74 | 231 | 1.0 | 3.0 | 0.00 | 0.00 | 0.00 | 53 | 1012.6 |
| 20260505231304 | 75 | 229 | 1.0 | 3.0 | 0.00 | 0.00 | 0.00 | 53 | 1013.1 |
| 20260505230404 | 76 | 215 | 0.0 | 2.0 | 0.00 | 0.00 | 0.00 | 49 | 1012.8 |
| 20260505230024 | 76 | 227 | 0.0 | 3.0 | 0.00 | 0.00 | 0.00 | 51 | 1012.5 |
| 20260505225504 | 78 | 171 | 1.0 | 4.0 | 0.00 | 0.00 | 0.00 | 47 | 1012.9 |
| 20260505224604 | 78 | 228 | 1.0 | 4.0 | 0.00 | 0.00 | 0.00 | 47 | 1012.8 |
| 20260505224507 | 77 | 144 | 1.0 | 4.0 | 0.00 | 0.00 | 0.00 | 47 | 1012.5 |
| 20260505223704 | 77 | 231 | 1.0 | 4.0 | 0.00 | 0.00 | 0.00 | 49 | 1012.7 |
| 20260505223012 | 77 | 5 | 0.0 | 6.0 | 0.00 | 0.00 | 0.00 | 50 | 1012.5 |
| 20260505222804 | 78 | 113 | 2.0 | 6.0 | 0.00 | 0.00 | 0.00 | 47 | 1012.9 |
| 20260505221904 | 79 | 142 | 2.0 | 5.0 | 0.00 | 0.00 | 0.00 | 49 | 1012.6 |
| 20260505221518 | 78 | 159 | 1.0 | 5.0 | 0.00 | 0.00 | 0.00 | 50 | 1012.4 |
| 20260505221004 | 78 | 147 | 1.0 | 5.0 | 0.00 | 0.00 | 0.00 | 48 | 1012.7 |
| 20260505220125 | 77 | 94 | 1.0 | 2.0 | 0.00 | 0.00 | 0.00 | 53 | 1012.5 |
| 20260505220008 | 76 | 94 | 0.0 | 2.0 | 0.00 | 0.00 | 0.00 | 51 | 1012.2 |
| 20260505215204 | 76 | 81 | 1.0 | 4.0 | 0.00 | 0.00 | 0.00 | 52 | 1012.7 |
| 20260505214513 | 76 | 90 | 1.0 | 4.0 | 0.00 | 0.00 | 0.00 | 49 | 1012.3 |
| 20260505214304 | 77 | 263 | 0.0 | 3.0 | 0.00 | 0.00 | 0.00 | 48 | 1012.7 |
| 20260505213404 | 77 | 234 | 0.0 | 4.0 | 0.00 | 0.00 | 0.00 | 51 | 1012.8 |
| 20260505213024 | 77 | 223 | 0.0 | 4.0 | 0.00 | 0.00 | 0.00 | 47 | 1012.6 |
| 20260505212504 | 77 | 208 | 2.0 | 4.0 | 0.00 | 0.00 | 0.00 | 45 | 1012.8 |
| 20260505211625 | 77 | 256 | 2.0 | 5.0 | 0.00 | 0.00 | 0.00 | 46 | 1012.6 |
| 20260505211507 | 77 | 183 | 1.0 | 5.0 | 0.00 | 0.00 | 0.00 | 47 | 1012.2 |
| 20260505210704 | 78 | 247 | 1.0 | 4.0 | 0.00 | 0.00 | 0.00 | 45 | 1012.5 |
| 20260505210011 | 77 | 288 | 0.0 | 4.0 | 0.00 | 0.00 | 0.00 | 47 | 1012.2 |
| 20260505205804 | 78 | 235 | 1.0 | 4.0 | 0.00 | 0.00 | 0.00 | 46 | 1012.8 |
| 20260505204904 | 79 | 242 | 2.0 | 5.0 | 0.00 | 0.00 | 0.00 | 43 | 1013.2 |
| 20260505204514 | 79 | 236 | 2.0 | 10.0 | 0.00 | 0.00 | 0.00 | 40 | 1012.9 |
| 20260505204004 | 80 | 257 | 3.0 | 10.0 | 0.00 | 0.00 | 0.00 | 39 | 1013.1 |
| 20260505203104 | 79 | 254 | 2.0 | 8.0 | 0.00 | 0.00 | 0.00 | 46 | 1013.3 |
| 20260505203028 | 79 | 355 | 1.0 | 8.0 | 0.00 | 0.00 | 0.00 | 47 | 1012.9 |
| 20260505202204 | 79 | 243 | 3.0 | 7.0 | 0.00 | 0.00 | 0.00 | 42 | 1013.4 |
| 20260505201510 | 80 | 274 | 2.0 | 8.0 | 0.00 | 0.00 | 0.00 | 40 | 1012.9 |
| 20260505201304 | 80 | 229 | 3.0 | 8.0 | 0.00 | 0.00 | 0.00 | 41 | 1013.5 |
| 20260505200404 | 80 | 260 | 2.0 | 6.0 | 0.00 | 0.00 | 0.00 | 40 | 1013.6 |
| 20260505200011 | 79 | 250 | 2.0 | 9.0 | 0.00 | 0.00 | 0.00 | 41 | 1013.2 |
| 20260505195504 | 80 | 255 | 4.0 | 9.0 | 0.00 | 0.00 | 0.00 | 41 | 1013.6 |
| 20260505194625 | 80 | 249 | 4.0 | 12.0 | 0.00 | 0.00 | 0.00 | 42 | 1013.6 |
| 20260505194518 | 79 | 360 | 3.0 | 12.0 | 0.00 | 0.00 | 0.00 | 44 | 1013.4 |
| 20260505193704 | 80 | 222 | 3.0 | 8.0 | 0.00 | 0.00 | 0.00 | 42 | 1013.8 |
| 20260505193018 | 78 | 90 | 2.0 | 9.0 | 0.00 | 0.00 | 0.00 | 46 | 1013.5 |
| 20260505192804 | 79 | 262 | 4.0 | 10.0 | 0.00 | 0.00 | 0.00 | 45 | 1013.9 |
| 20260505191904 | 79 | 272 | 3.0 | 13.0 | 0.00 | 0.00 | 0.00 | 45 | 1014.2 |
| 20260505191506 | 79 | 266 | 3.0 | 13.0 | 0.00 | 0.00 | 0.00 | 41 | 1013.7 |
| 20260505191025 | 79 | 232 | 2.0 | 9.0 | 0.00 | 0.00 | 0.00 | 43 | 1014.3 |
| 20260505190104 | 78 | 245 | 2.0 | 7.0 | 0.00 | 0.00 | 0.00 | 41 | 1014.4 |
| 20260505190010 | 78 | 238 | 1.0 | 6.0 | 0.00 | 0.00 | 0.00 | 45 | 1014.0 |
| 20260505185204 | 78 | 249 | 3.0 | 8.0 | 0.00 | 0.00 | 0.00 | 44 | 1014.5 |
| 20260505184515 | 78 | 223 | 3.0 | 10.0 | 0.00 | 0.00 | 0.00 | 43 | 1014.0 |
| 20260505184304 | 78 | 264 | 3.0 | 10.0 | 0.00 | 0.00 | 0.00 | 45 | 1014.5 |
| 20260505183404 | 78 | 178 | 2.0 | 10.0 | 0.00 | 0.00 | 0.00 | 45 | 1014.5 |
| 20260505183018 | 78 | 360 | 2.0 | 7.0 | 0.00 | 0.00 | 0.00 | 43 | 1014.0 |
| 20260505182525 | 78 | 208 | 3.0 | 10.0 | 0.00 | 0.00 | 0.00 | 44 | 1014.6 |
| 20260505181604 | 78 | 214 | 4.0 | 10.0 | 0.00 | 0.00 | 0.00 | 42 | 1014.6 |
| 20260505181507 | 78 | 199 | 4.0 | 10.0 | 0.00 | 0.00 | 0.00 | 41 | 1014.2 |
| 20260505180704 | 78 | 196 | 2.0 | 7.0 | 0.00 | 0.00 | 0.00 | 43 | 1014.7 |
| 20260505180011 | 77 | 194 | 2.0 | 6.0 | 0.00 | 0.00 | 0.00 | 45 | 1014.3 |
| 20260505175826 | 78 | 196 | 3.0 | 15.0 | 0.00 | 0.00 | 0.00 | 46 | 1014.7 |
| 20260505174904 | 78 | 209 | 3.0 | 9.0 | 0.00 | 0.00 | 0.00 | 50 | 1014.7 |
| 20260505174517 | 77 | 258 | 3.0 | 9.0 | 0.00 | 0.00 | 0.00 | 50 | 1014.3 |
| 20260505174025 | 78 | 201 | 3.0 | 9.0 | 0.00 | 0.00 | 0.00 | 50 | 1014.8 |
| 20260505173107 | 77 | 207 | 3.0 | 9.0 | 0.00 | 0.00 | 0.00 | 48 | 1014.9 |
| 20260505173104 | 78 | 212 | 3.0 | 11.0 | 0.00 | 0.00 | 0.00 | 48 | 1015.2 |
| 20260505172204 | 77 | 201 | 4.0 | 15.0 | 0.00 | 0.00 | 0.00 | 47 | 1015.4 |
| 20260505171507 | 77 | 20 | 2.0 | 15.0 | 0.00 | 0.00 | 0.00 | 50 | 1015.1 |
| 20260505171304 | 77 | 210 | 5.0 | 15.0 | 0.00 | 0.00 | 0.00 | 48 | 1015.5 |
| 20260505170425 | 77 | 176 | 2.0 | 12.0 | 0.00 | 0.00 | 0.00 | 50 | 1015.6 |
| 20260505170018 | 76 | 227 | 3.0 | 11.0 | 0.00 | 0.00 | 0.00 | 50 | 1015.3 |
| 20260505165504 | 77 | 190 | 3.0 | 11.0 | 0.00 | 0.00 | 0.00 | 50 | 1015.7 |
| 20260505164604 | 76 | 202 | 3.0 | 9.0 | 0.00 | 0.00 | 0.00 | 52 | 1015.7 |
| 20260505164506 | 76 | 205 | 1.0 | 9.0 | 0.00 | 0.00 | 0.00 | 56 | 1015.4 |
| 20260505163704 | 75 | 229 | 3.0 | 9.0 | 0.00 | 0.00 | 0.00 | 56 | 1015.8 |
| 20260505163010 | 74 | 210 | 2.0 | 7.0 | 0.00 | 0.00 | 0.00 | 55 | 1015.5 |
| 20260505162804 | 75 | 245 | 3.0 | 7.0 | 0.00 | 0.00 | 0.00 | 58 | 1015.8 |
| 20260505161904 | 74 | 282 | 3.0 | 11.0 | 0.00 | 0.00 | 0.00 | 57 | 1015.9 |
| 20260505161510 | 73 | 144 | 1.0 | 6.0 | 0.00 | 0.00 | 0.00 | 58 | 1015.4 |
| 20260505161004 | 73 | 326 | 2.0 | 7.0 | 0.00 | 0.00 | 0.00 | 58 | 1015.7 |
| 20260505160104 | 73 | 331 | 1.0 | 7.0 | 0.00 | 0.00 | 0.00 | 58 | 1015.5 |
| 20260505153017 | 70 | 236 | 0.0 | 3.0 | 0.00 | 0.00 | 0.00 | 63 | 1015.8 |
| 20260505152504 | 71 | 360 | 2.0 | 5.0 | 0.00 | 0.00 | 0.00 | 63 | 1016.2 |
| 20260505151624 | 69 | 58 | 1.0 | 3.0 | 0.00 | 0.00 | 0.00 | 65 | 1015.8 |
| 20260505151604 | 70 | 59 | 1.0 | 3.0 | 0.00 | 0.00 | 0.00 | 65 | 1016.1 |
| 20260505150726 | 69 | 49 | 1.0 | 3.0 | 0.00 | 0.00 | 0.00 | 66 | 1016.0 |
| 20260505140405 | 64 | 299 | 1.0 | 2.0 | 0.00 | 0.00 | 0.00 | 70 | 1016.3 |
| 20260505130105 | 56 | 279 | 0.0 | 2.0 | 0.00 | 0.00 | 0.00 | 85 | 1016.5 |
| 20260505130103 | 56 | 279 | 0.0 | 2.0 | 0.00 | 0.00 | 0.00 | 85 | 1016.3 |
| 20260505124504 | 54 | 279 | 0.0 | 0.0 | 0.00 | 0.00 | 0.00 | 89 | 1015.9 |
| 20260505124305 | 55 | 0 | 0.0 | 0.0 | 0.00 | 0.00 | 0.00 | 90 | 1016.0 |
| 20260505123405 | 53 | 0 | 0.0 | 0.0 | 0.00 | 0.00 | 0.00 | 91 | 1015.9 |
| 20260505123009 | 52 | 279 | 0.0 | 0.0 | 0.00 | 0.00 | 0.00 | 91 | 1015.6 |
| 20260505122505 | 52 | 0 | 0.0 | 0.0 | 0.00 | 0.00 | 0.00 | 91 | 1015.9 |
| 20260505121605 | 51 | 279 | 0.0 | 2.0 | 0.00 | 0.00 | 0.00 | 91 | 1015.8 |
| 20260505121510 | 51 | 279 | 0.0 | 2.0 | 0.00 | 0.00 | 0.00 | 91 | 1015.5 |
| 20260505120705 | 51 | 279 | 0.0 | 1.0 | 0.00 | 0.00 | 0.00 | 91 | 1015.6 |
| 20260505120038 | 50 | 279 | 0.0 | 0.0 | 0.00 | 0.00 | 0.00 | 91 | 1015.3 |
| 20260505115826 | 51 | 0 | 0.0 | 0.0 | 0.00 | 0.00 | 0.00 | 91 | 1015.4 |
| 20260505114905 | 51 | 279 | 0.0 | 2.0 | 0.00 | 0.00 | 0.00 | 92 | 1015.5 |
| 20260505114602 | 50 | 279 | 0.0 | 1.0 | 0.00 | 0.00 | 0.00 | 92 | 1015.2 |
| 20260505114026 | 50 | 279 | 0.0 | 1.0 | 0.00 | 0.00 | 0.00 | 92 | 1015.3 |
| 20260505113105 | 50 | 279 | 0.0 | 1.0 | 0.00 | 0.00 | 0.00 | 91 | 1015.2 |
| 20260505113005 | 49 | 279 | 0.0 | 1.0 | 0.00 | 0.00 | 0.00 | 91 | 1015.0 |
| 20260505112226 | 49 | 279 | 0.0 | 1.0 | 0.00 | 0.00 | 0.00 | 91 | 1015.1 |
| 20260505111507 | 49 | 279 | 0.0 | 1.0 | 0.00 | 0.00 | 0.00 | 91 | 1014.7 |
| 20260505111305 | 49 | 279 | 0.0 | 1.0 | 0.00 | 0.00 | 0.00 | 91 | 1014.8 |
| 20260505110405 | 48 | 279 | 1.0 | 2.0 | 0.00 | 0.00 | 0.00 | 91 | 1014.8 |
| 20260505101926 | 49 | 279 | 0.0 | 2.0 | 0.00 | 0.00 | 0.00 | 91 | 1014.7 |
| 20260505101517 | 49 | 279 | 0.0 | 2.0 | 0.00 | 0.00 | 0.00 | 91 | 1014.4 |
| 20260505101005 | 49 | 278 | 0.0 | 2.0 | 0.00 | 0.00 | 0.00 | 91 | 1014.6 |
| 20260505100105 | 49 | 263 | 1.0 | 1.0 | 0.00 | 0.00 | 0.00 | 90 | 1014.5 |
| 20260505100020 | 48 | 275 | 0.0 | 1.0 | 0.00 | 0.00 | 0.00 | 90 | 1014.3 |
| 20260505095226 | 49 | 252 | 1.0 | 2.0 | 0.00 | 0.00 | 0.00 | 90 | 1014.4 |
| 20260505094515 | 48 | 248 | 0.0 | 2.0 | 0.00 | 0.00 | 0.00 | 90 | 1014.3 |
| 20260505094305 | 49 | 247 | 1.0 | 2.0 | 0.00 | 0.00 | 0.00 | 90 | 1014.5 |
| 20260505093426 | 49 | 249 | 0.0 | 2.0 | 0.00 | 0.00 | 0.00 | 90 | 1014.8 |
| 20260505093004 | 49 | 250 | 0.0 | 2.0 | 0.00 | 0.00 | 0.00 | 90 | 1014.6 |
| 20260505092505 | 49 | 251 | 0.0 | 1.0 | 0.00 | 0.00 | 0.00 | 90 | 1014.8 |
| 20260505091605 | 49 | 224 | 0.0 | 1.0 | 0.00 | 0.00 | 0.00 | 90 | 1014.8 |
| 20260505091524 | 49 | 246 | 0.0 | 2.0 | 0.00 | 0.00 | 0.00 | 90 | 1014.6 |